| time (UTC) | temp C | wind direction | speed KPH | gust KPH | rain 1hr cm | rain 24hr cm | rain mn cm | humidity % | barometer mb |
| 20260504201558 | 20 | 95 | 3.2 | 11.3 | 0.00 | 0.00 | 0.00 | 36 | 1008.5 |
| 20260504200057 | 20 | 190 | 4.8 | 19.3 | 0.00 | 0.00 | 0.00 | 40 | 1008.3 |
| 20260504194556 | 18 | 255 | 6.4 | 25.7 | 0.00 | 0.00 | 0.00 | 40 | 1008.5 |
| 20260504193057 | 18 | 216 | 3.2 | 20.9 | 0.00 | 0.00 | 0.00 | 40 | 1008.7 |
| 20260504191601 | 20 | 219 | 4.8 | 22.5 | 0.00 | 0.00 | 0.00 | 39 | 1008.7 |
| 20260504190056 | 18 | 70 | 6.4 | 17.7 | 0.00 | 0.00 | 0.00 | 41 | 1008.7 |
| 20260504184559 | 18 | 123 | 4.8 | 16.1 | 0.00 | 0.00 | 0.00 | 41 | 1008.8 |
| 20260504183103 | 19 | 222 | 6.4 | 17.7 | 0.00 | 0.00 | 0.00 | 39 | 1008.9 |
| 20260504181556 | 18 | 128 | 3.2 | 16.1 | 0.00 | 0.00 | 0.00 | 42 | 1009.0 |
| 20260504180116 | 18 | 151 | 4.8 | 14.5 | 0.00 | 0.00 | 0.00 | 41 | 1009.1 |
| 20260504174557 | 18 | 205 | 6.4 | 14.5 | 0.00 | 0.00 | 0.00 | 40 | 1009.1 |
| 20260504173109 | 17 | 28 | 8.0 | 20.9 | 0.00 | 0.00 | 0.00 | 41 | 1009.1 |
| 20260504171602 | 18 | 260 | 4.8 | 16.1 | 0.00 | 0.00 | 0.00 | 39 | 1009.5 |
| 20260504160109 | 18 | 146 | 6.4 | 24.1 | 0.00 | 0.00 | 0.00 | 36 | 1010.1 |
| 20260504081608 | 5 | 115 | 0.0 | 3.2 | 0.00 | 0.00 | 0.00 | 64 | 1011.2 |
| 20260504080103 | 5 | 190 | 0.0 | 9.7 | 0.00 | 0.00 | 0.00 | 62 | 1011.2 |
| 20260504044558 | 5 | 75 | 0.0 | 6.4 | 0.00 | 0.00 | 0.00 | 64 | 1011.0 |
| 20260504043059 | 5 | 0 | 0.0 | 6.4 | 0.00 | 0.00 | 0.00 | 65 | 1011.0 |
| 20260504041609 | 5 | 36 | 0.0 | 4.8 | 0.00 | 0.00 | 0.00 | 65 | 1011.1 |
| 20260504040059 | 5 | 0 | 0.0 | 1.6 | 0.00 | 0.00 | 0.00 | 64 | 1011.2 |
| 20260504034623 | 5 | 0 | 0.0 | 3.2 | 0.00 | 0.00 | 0.00 | 61 | 1011.2 |
| 20260504033055 | 6 | 0 | 0.0 | 1.6 | 0.00 | 0.00 | 0.00 | 60 | 1011.2 |
| 20260504031555 | 6 | 0 | 0.0 | 3.2 | 0.00 | 0.00 | 0.00 | 60 | 1011.2 |
| 20260504030058 | 6 | 0 | 0.0 | 3.2 | 0.00 | 0.00 | 0.00 | 58 | 1011.1 |
| 20260504024556 | 7 | 0 | 0.0 | 4.8 | 0.00 | 0.00 | 0.00 | 58 | 1011.3 |
| 20260504023058 | 7 | 0 | 1.6 | 4.8 | 0.00 | 0.00 | 0.00 | 57 | 1011.4 |
| 20260504021554 | 7 | 241 | 0.0 | 4.8 | 0.00 | 0.00 | 0.00 | 60 | 1011.4 |
| 20260504020117 | 7 | 0 | 0.0 | 3.2 | 0.00 | 0.00 | 0.00 | 59 | 1011.1 |
| 20260504014602 | 7 | 0 | 1.6 | 6.4 | 0.00 | 0.00 | 0.00 | 57 | 1011.0 |
| 20260504013123 | 7 | 181 | 0.0 | 6.4 | 0.00 | 0.00 | 0.00 | 60 | 1010.8 |
| 20260504011554 | 7 | 0 | 0.0 | 4.8 | 0.00 | 0.00 | 0.00 | 59 | 1010.8 |
| 20260504010055 | 7 | 0 | 0.0 | 6.4 | 0.00 | 0.00 | 0.00 | 57 | 1010.7 |
| 20260504004555 | 7 | 0 | 0.0 | 6.4 | 0.00 | 0.00 | 0.00 | 57 | 1010.7 |
| 20260504003054 | 7 | 0 | 0.0 | 1.6 | 0.00 | 0.00 | 0.00 | 56 | 1010.5 |
| 20260504001556 | 7 | 186 | 0.0 | 4.8 | 0.00 | 0.00 | 0.00 | 54 | 1010.3 |
| 20260504000107 | 8 | 0 | 0.0 | 6.4 | 0.00 | 0.00 | 0.00 | 54 | 1010.2 |
| 20260503234555 | 8 | 191 | 0.0 | 6.4 | 0.00 | 0.00 | 0.00 | 52 | 1010.2 |
| 20260503233058 | 8 | 258 | 0.0 | 4.8 | 0.00 | 0.00 | 0.00 | 51 | 1010.2 |
| 20260503231555 | 8 | 283 | 3.2 | 12.9 | 0.00 | 0.00 | 0.00 | 50 | 1010.1 |
| 20260503230104 | 9 | 203 | 3.2 | 9.7 | 0.00 | 0.00 | 0.00 | 49 | 1010.2 |
| 20260503224601 | 10 | 194 | 1.6 | 14.5 | 0.00 | 0.00 | 0.00 | 47 | 1010.1 |
| 20260503223056 | 10 | 0 | 4.8 | 14.5 | 0.00 | 0.00 | 0.00 | 46 | 1010.2 |
| 20260503221603 | 10 | 284 | 3.2 | 11.3 | 0.00 | 0.00 | 0.00 | 45 | 1010.0 |
| 20260503220055 | 11 | 345 | 4.8 | 16.1 | 0.00 | 0.00 | 0.00 | 44 | 1010.2 |
| 20260503214600 | 11 | 340 | 4.8 | 14.5 | 0.00 | 0.00 | 0.00 | 44 | 1010.1 |
| 20260503213102 | 11 | 227 | 3.2 | 16.1 | 0.00 | 0.00 | 0.00 | 43 | 1010.0 |
| 20260503211559 | 12 | 314 | 3.2 | 16.1 | 0.00 | 0.00 | 0.00 | 40 | 1009.8 |
| 20260503210056 | 11 | 248 | 4.8 | 20.9 | 0.00 | 0.00 | 0.00 | 38 | 1009.7 |
| 20260503204619 | 11 | 150 | 3.2 | 12.9 | 0.00 | 0.00 | 0.00 | 38 | 1009.6 |
| 20260503203059 | 12 | 250 | 3.2 | 17.7 | 0.00 | 0.00 | 0.00 | 34 | 1009.5 |